Flag for Canada Weather past 2 weeks in Sarnia, Ontario, Canada

Now
64 °F

Sunny.


Feels Like: 64 °F
Forecast: 50 / 77 °F
Wind: 8 mph from Southwest

Location: Sarnia Airport

Current Time: Jul 25, 2014 at 10:25:08 AM

Latest Report: Jul 25, 2014 at 9:00 AM


Visibility: 9 mi

Pressure: 30.08 "Hg

Humidity: 68%

Dew point: 54 °F

Location of SarniaLocation

Historic Weather in Sarnia — Graph

°F

Sarnia temperature yesterday

Maximum temperature yesterday: 70 °F (at 4:00 PM)
Minimum temperature yesterday: 57 °F (at 11:00 PM)
Average temperature yesterday: 64 °F

Past Weeks' High & Low Weather Summary

 TemperatureHumidityPressure
High84 °F (Jul 22, 1:00 PM)100% (Jul 11, 5:00 AM)30.26 "Hg (Jul 11, 5:00 AM)
Low50 °F (Jul 25, 4:00 AM)44% (Jul 11, 7:00 PM)29.68 "Hg (Jul 15, 5:00 AM)
Average67 °F74%30.02 "Hg
* Reported Jul 10 9:00 AM — Jul 25 9:00 AM, Sarnia, Weather by CustomWeather, © 2014

Note: Actual official high and low records may vary slightly from our data, if they occured in-between our weather recording intervals... More about our weather records

Advertising

Sarnia weather history for July 12, 2014

 ConditionsComfort  
Time TempWeatherWind HumidityBarometerVisibility
12:00 AM
Jul 12
66 °FPassing clouds.3 mph73%30.19 "Hg9 mi
1:00 AM64 °FOvercast.6 mph78%30.17 "Hg9 mi
2:00 AM63 °FPassing clouds.6 mph83%30.16 "Hg9 mi
3:00 AM63 °FClear.5 mph83%30.16 "Hg9 mi
4:00 AM61 °FClear.5 mph88%30.14 "Hg9 mi
5:00 AM59 °FClear.5 mph94%30.14 "Hg9 mi
6:00 AM59 °FClear.5 mph88%30.14 "Hg9 mi
7:00 AM61 °FPassing clouds.6 mph94%30.13 "Hg9 mi
8:00 AM68 °FSunny.6 mph83%30.12 "Hg9 mi
9:00 AM73 °FSunny.8 mph74%30.13 "Hg9 mi
10:00 AM77 °FSunny.9 mph61%30.14 "Hg9 mi
11:00 AM79 °FSunny.8 mph54%30.12 "Hg9 mi
12:00 PM81 °FSunny.12 mph51%30.11 "Hg9 mi
1:00 PM81 °FSunny.13 mph51%30.10 "Hg9 mi
2:00 PM82 °FSunny.13 mph48%30.09 "Hg9 mi
3:00 PM82 °FSunny.14 mph48%30.07 "Hg9 mi
4:00 PM82 °FSunny.15 mph48%30.05 "Hg9 mi
5:00 PM82 °FSunny.13 mph48%30.02 "Hg9 mi
6:00 PM81 °FPartly sunny.13 mph51%30.00 "Hg9 mi
7:00 PM81 °FScattered clouds.12 mph54%29.98 "Hg9 mi
8:00 PM79 °FMostly cloudy.8 mph58%29.97 "Hg9 mi
9:00 PM77 °FOvercast.9 mph61%29.95 "Hg9 mi
10:00 PM75 °FLight rain. Overcast.10 mph69%29.94 "Hg9 mi
10:52 PM70 °FMostly cloudy.8 mph88%29.93 "Hg9 mi
11:00 PM72 °FOvercast.8 mph83%29.93 "Hg9 mi
Weather by CustomWeather, © 2014

See weather overviewHow to use our weather pages